sat.trackr.live / text

‹ back to catalog

ONEWEB-0707

NORAD 61612 · 2024-188U

PAYLOAD ACTIVE UNKNOWN

§ Identity

Operator
Country
UK
Launch date
2024-10-20
Launch site
AFWTR
Launch vehicle
Mass (kg)
RCS (m²)

Purposes: comms

External: N2YO · Heavens-Above · Gunter

§ Orbital elements

Epoch: 2026-09-19T16:08:55.219776Z

Period
109.89 min
Inclination
87.8912°
Eccentricity
0.0001182
Mean motion
13.10377720 rev/d
Perigee alt
1,220.8 km
Apogee alt
1,222.6 km
Semi-major
7,599.8 km
B*
-2.7031e-4
RAAN
17.4550°
Arg perigee
107.9093°
Mean anomaly
252.2164°
Rev number
9,569

§ Raw data

ONEWEB-07071 61612U 24188U   26262.67286134 -.00000082  00000+0 -27031-3 0  99912 61612  87.8912  17.4550 0001182 107.9093 252.2164 13.10377720 95698

JSON: /api/v1/satellites/61612 · /tle

For live sub-satellite position, see the globe view (requires WebGL).

§ Visibility from observer

Set your observer location to see the next 7 days of passes ≥ 10°. The values pass through the URL so the page stays shareable.

No JS? Fill the form by hand. The geolocation button needs JavaScript.